{"data":{"norad_id":60546,"intl_designator":"2024-149CG","name":"ICEYE-X39","alt_names":[],"object_type":"PAYLOAD","status":"ACTIVE","operator":null,"country":"BRAZ","launch_date":"2024-08-16","launch_site_code":"AFWTR","launch_vehicle":null,"mission":null,"orbit_class":"UNKNOWN","rcs_meters":null,"size_class":null,"mass_kg":null,"dimensions":null,"purposes":[],"wikipedia_slug":null,"has_3d_model":false,"image_url":null,"decayed_at":null,"tle_current":{"epoch":"2026-09-22T17:35:25.845792Z","epoch_age_seconds":96200,"freshness":"FRESH","line1":"1 60546U 24149CG  26265.73293803  .00001457  00000+0  12182-3 0  9990","line2":"2 60546  97.6709 341.4689 0010026 165.9513 194.1992 15.00014698114741","mean_motion":15.00014698,"eccentricity":0.0010026,"inclination_deg":97.6709,"raan_deg":341.4689,"arg_perigee_deg":165.9513,"mean_anomaly_deg":194.1992,"bstar":0.00012182,"rev_number":11474,"period_min":95.999059337217,"perigee_km":559.88793303272,"apogee_km":573.81402292617,"semimajor_km":6944.9879779794,"source":"CELESTRAK","updated_at":"2026-09-23T09:00:20.672761Z"}}}